Terminal Aerodrome Forecast
Issued by NWS San Angelo, TX

Home | Current Version | Previous Version | Text Only | Print | Product List | Glossary On
Versions: 1 2 3 4 5 6 7 8 9 10 11 12 13 14 15 16 17 18 19 20 21 22 23 24 25 26 27 28
651
FTUS44 KSJT 221100
TAFABI
TAF
KABI 221133Z 2212/2312 24010KT 3SM BR OVC003
     FM221400 14011KT 6SM BR VCSH OVC007
     FM222100 15012KT P6SM OVC015
     FM230100 15012KT P6SM OVC007=

USA.gov is the U.S. government's official web portal to all federal, state and local government web resources and services.